sat.trackr.live / text

‹ back to catalog

ONEWEB-0319

NORAD 49105 · 2021-075AG

PAYLOAD ACTIVE UNKNOWN

§ Identity

Operator
Country
UK
Launch date
2021-08-21
Launch site
TYMSC
Launch vehicle
Mass (kg)
RCS (m²)

Purposes: comms

External: N2YO · Heavens-Above · Gunter

§ Orbital elements

Epoch: 2026-05-25T02:07:52.148928Z

Period
109.29 min
Inclination
87.9152°
Eccentricity
0.0002354
Mean motion
13.17651640 rev/d
Perigee alt
1,191.9 km
Apogee alt
1,195.5 km
Semi-major
7,571.8 km
B*
1.3795e-4
RAAN
10.4617°
Arg perigee
86.4706°
Mean anomaly
273.6695°
Rev number
23,056

§ Raw data

ONEWEB-03191 49105U 21075AG  26145.08879802  .00000066  00000+0  13795-3 0  99932 49105  87.9152  10.4617 0002354  86.4706 273.6695 13.17651640230565

JSON: /api/v1/satellites/49105 · /tle

For live sub-satellite position, see the globe view (requires WebGL).

§ Visibility from observer

Set your observer location to see the next 7 days of passes ≥ 10°. The values pass through the URL so the page stays shareable.

No JS? Fill the form by hand. The geolocation button needs JavaScript.